Location: Dackenheim
(49.5215°N, 8.1854°E)
Time: 07:36:24
(UTC+00:00)

Cosmos 2084 Rocket - Pass Details

Date: 19 May 2025
Orbit: 543 x 578 km, 62.8° (Epoch: 22 June)

Event Time Altitude Azimuth Distance (km) Brightness Sun altitude
Rises 21:54:26 0° 236° (SW) 2,780 6.8 -17.7°
Reaches altitude 10° 21:56:42 10° 241° (WSW) 1,882 6.0 -17.9°
Maximum altitude 22:00:52 53° 319° (NW) 708 4.2 -18.1°
Drops below altitude 10° 22:05:01 10° 37° (NE) 1,873 6.5 -18.3°
Sets 22:07:17 0° 42° (NE) 2,767 7.3 -18.5°
